Weather History for Jefferson, NC

Change the Weather History Date:

Thursday, November 8, 2012

  Actual Average Record
Temperature  
Mean Temperature 40 °F -  
Max Temperature 46 °F 56 °F 73 °F (1986)
Min Temperature 33 °F 31 °F 14 °F (1971)
Degree Days  
Heating Degree Days 26    
Moisture  
Dew Point 24 °F    
Average Humidity 54    
Maximum Humidity 75    
Minimum Humidity 27    
Precipitation  
Precipitation 0.00 in - - ()
Sea Level Pressure  
Sea Level Pressure 30.05 in    
Wind  
Wind Speed 12 mph (NW)    
Max Wind Speed 18 mph    
Max Gust Speed 30 mph    
Visibility 10 miles    
Events      
Averages and records for this station are not official NWS values.
T = Trace of Precipitation, MM = Missing Value Source: NWS Daily Summary

Daily Weather History Graph

Daily Weather History Graph

Search for Another Location

Airport:

Trip Planner

Search our weather history database for the weather conditions in past years. The results will help you decide how hot, cold, wet, or windy it might be!

Date:

Astronomy

Nov. 08, 2012 Rise Set
Actual Time 6:56 AM EST 5:22 PM EST
Civil Twilight 6:29 AM EST 5:49 PM EST
Nautical Twilight 5:58 AM EST 6:19 PM EST
Astronomical Twilight 5:28 AM EST 6:50 PM EST
Moon 12:59 AM EST (11/8) 1:53 PM EST (11/8)
Length of Visible Light 11h 19m
Length of Day
10h 25m
Waning Crescent, 33% of the Moon is Illuminated
Nov 8
Waning Crescent
Nov 13
New
Nov 20
First Quarter
Nov 28
Full
Dec 6
Last Quarter

Hourly Weather History & Observations

Time (EST) Temp. Windchill Dew Point Humidity Pressure Visibility Wind Dir Wind Speed Gust Speed Precip Events Conditions
12:15 AM 37.4 °F 29.8 °F 30.2 °F 75% 29.94 in 10.0 mi NNW 11.5 mph 19.6 mph N/A   Mostly Cloudy
12:35 AM 37.4 °F 29.8 °F 30.2 °F 75% 29.94 in 10.0 mi NW 11.5 mph 16.1 mph N/A   Scattered Clouds
12:55 AM 37.4 °F 28.5 °F 30.2 °F 75% 29.94 in 10.0 mi NW 15.0 mph 19.6 mph N/A   Clear
1:15 AM 37.4 °F 29.8 °F 30.2 °F 75% 29.95 in 10.0 mi NW 11.5 mph 20.7 mph N/A   Clear
1:35 AM 37.4 °F 29.8 °F 30.2 °F 75% 29.95 in 10.0 mi NNW 11.5 mph 17.3 mph N/A   Clear
1:55 AM 37.4 °F 30.3 °F 28.4 °F 70% 29.95 in 10.0 mi NW 10.4 mph 18.4 mph N/A   Clear
2:15 AM 37.4 °F 28.9 °F 28.4 °F 70% 29.95 in 10.0 mi NNW 13.8 mph 23.0 mph N/A   Clear
2:35 AM 37.4 °F 28.5 °F 28.4 °F 70% 29.95 in 10.0 mi NNW 15.0 mph 23.0 mph N/A   Clear
3:15 AM 37.4 °F 28.9 °F 28.4 °F 70% 29.96 in 10.0 mi NNW 13.8 mph 26.5 mph N/A   Clear
3:35 AM 35.6 °F 25.9 °F 28.4 °F 75% 29.96 in 10.0 mi NW 16.1 mph 21.9 mph N/A   Clear
3:55 AM 35.6 °F 26.6 °F 28.4 °F 75% 29.97 in 10.0 mi NW 13.8 mph - N/A   Clear
4:15 AM 35.6 °F 27.1 °F 28.4 °F 75% 29.97 in 10.0 mi WNW 12.7 mph 16.1 mph N/A   Clear
4:35 AM 35.6 °F 27.1 °F 26.6 °F 70% 29.98 in 10.0 mi NW 12.7 mph 26.5 mph N/A   Clear
4:55 AM 37.4 °F 27.5 °F 23.0 °F 56% 29.98 in 10.0 mi NW 18.4 mph 28.8 mph N/A   Clear
5:15 AM 37.4 °F 28.5 °F 23.0 °F 56% 29.98 in 10.0 mi NNW 15.0 mph 29.9 mph N/A   Clear
5:35 AM 35.6 °F 26.2 °F 23.0 °F 60% 29.99 in 10.0 mi NW 15.0 mph 25.3 mph N/A   Clear
6:15 AM 35.6 °F 27.1 °F 26.6 °F 70% 30.01 in 10.0 mi NW 12.7 mph 19.6 mph N/A   Clear
6:35 AM 33.8 °F 23.2 °F 26.6 °F 75% 30.01 in 10.0 mi NW 17.3 mph 23.0 mph N/A   Clear
6:55 AM 35.6 °F 26.6 °F 26.6 °F 70% 30.03 in 10.0 mi NNW 13.8 mph 23.0 mph N/A   Clear
7:15 AM 35.6 °F 26.6 °F 24.8 °F 65% 30.04 in 10.0 mi NNW 13.8 mph 19.6 mph N/A   Clear
7:35 AM 35.6 °F 28.6 °F 26.6 °F 70% 30.04 in 10.0 mi NW 9.2 mph 16.1 mph N/A   Clear
7:55 AM 35.6 °F 25.5 °F 24.8 °F 65% 30.05 in 10.0 mi WNW 17.3 mph 20.7 mph N/A   Clear
8:15 AM 35.6 °F 27.5 °F 26.6 °F 70% 30.06 in 10.0 mi WNW 11.5 mph 19.6 mph N/A   Clear
8:35 AM 37.4 °F 32.1 °F 24.8 °F 60% 30.07 in 10.0 mi WNW 6.9 mph - N/A   Clear
8:55 AM 37.4 °F 30.8 °F 24.8 °F 60% 30.08 in 10.0 mi WNW 9.2 mph 19.6 mph N/A   Clear
9:15 AM 37.4 °F 31.4 °F 24.8 °F 60% 30.09 in 10.0 mi NW 8.1 mph 16.1 mph N/A   Clear
9:35 AM 39.2 °F 31.2 °F 23.0 °F 52% 30.09 in 10.0 mi NNW 13.8 mph 19.6 mph N/A   Clear
9:55 AM 41.0 °F 33.9 °F 24.8 °F 53% 30.09 in 10.0 mi NW 12.7 mph 20.7 mph N/A   Clear
10:15 AM 41.0 °F 34.7 °F 24.8 °F 53% 30.10 in 10.0 mi NW 10.4 mph 21.9 mph N/A   Clear
10:35 AM 41.0 °F 32.8 °F 23.0 °F 49% 30.10 in 10.0 mi NNW 16.1 mph 21.9 mph N/A   Clear
10:55 AM 42.8 °F 34.8 °F 23.0 °F 46% 30.10 in 10.0 mi NNW 17.3 mph 24.2 mph N/A   Clear
11:15 AM 42.8 °F 36.2 °F 21.2 °F 42% 30.09 in 10.0 mi NW 12.7 mph 26.5 mph N/A   Clear
11:35 AM 44.6 °F 39.7 °F 19.4 °F 37% 30.09 in 10.0 mi NW 9.2 mph 19.6 mph N/A   Clear
11:55 AM 44.6 °F 38.4 °F 15.8 °F 31% 30.09 in 10.0 mi NW 12.7 mph 21.9 mph N/A   Clear
12:15 PM 46.4 °F 40.4 °F 14.0 °F 27% 30.08 in 10.0 mi NW 13.8 mph 18.4 mph N/A   Clear
12:35 PM 46.4 °F 40.4 °F 14.0 °F 27% 30.07 in 10.0 mi NNW 13.8 mph 19.6 mph N/A   Clear
12:55 PM 46.4 °F 41.1 °F 15.8 °F 29% 30.07 in 10.0 mi NW 11.5 mph 24.2 mph N/A   Clear
1:15 PM 46.4 °F 40.4 °F 14.0 °F 27% 30.06 in 10.0 mi NNW 13.8 mph 23.0 mph N/A   Clear
1:35 PM 46.4 °F 39.8 °F 14.0 °F 27% 30.06 in 10.0 mi NNW 16.1 mph 21.9 mph N/A   Clear
2:15 PM 46.4 °F 40.7 °F 17.6 °F 32% 30.06 in 10.0 mi NNW 12.7 mph 21.9 mph N/A   Clear
2:35 PM 46.4 °F 40.1 °F 19.4 °F 34% 30.06 in 10.0 mi NNW 15.0 mph 18.4 mph N/A   Clear
2:55 PM 46.4 °F 41.1 °F 19.4 °F 34% 30.06 in 10.0 mi NNW 11.5 mph 21.9 mph N/A   Clear
3:15 PM 46.4 °F 41.5 °F 19.4 °F 34% 30.07 in 10.0 mi NW 10.4 mph 23.0 mph N/A   Clear
3:35 PM 44.6 °F 37.4 °F 19.4 °F 37% 30.07 in 10.0 mi NNW 16.1 mph 21.9 mph N/A   Clear
3:55 PM 44.6 °F 39.7 °F 21.2 °F 39% 30.08 in 10.0 mi NNW 9.2 mph 18.4 mph N/A   Clear
4:15 PM 44.6 °F 39.7 °F 23.0 °F 43% 30.08 in 10.0 mi NNW 9.2 mph - N/A   Clear
4:35 PM 44.6 °F 38.8 °F 23.0 °F 43% 30.08 in 10.0 mi NNW 11.5 mph 17.3 mph N/A   Clear
4:55 PM 44.6 °F 40.7 °F 23.0 °F 43% 30.08 in 10.0 mi North 6.9 mph 18.4 mph N/A   Clear
5:15 PM 42.8 °F 38.0 °F 23.0 °F 46% 30.08 in 10.0 mi WNW 8.1 mph 17.3 mph N/A   Clear
5:35 PM 42.8 °F 39.3 °F 23.0 °F 46% 30.08 in 10.0 mi NW 5.8 mph - N/A   Clear
5:55 PM 42.8 °F 38.6 °F 24.8 °F 49% 30.09 in 10.0 mi WSW 6.9 mph - N/A   Clear
6:15 PM 42.8 °F 41.1 °F 23.0 °F 46% 30.09 in 10.0 mi NW 3.5 mph - N/A   Clear
6:35 PM 42.8 °F 38.6 °F 24.8 °F 49% 30.10 in 10.0 mi NW 6.9 mph - N/A   Clear
6:55 PM 41.0 °F 38.0 °F 23.0 °F 49% 30.10 in 10.0 mi WNW 4.6 mph - N/A   Clear
7:15 PM 41.0 °F 35.2 °F 23.0 °F 49% 30.10 in 10.0 mi NW 9.2 mph - N/A   Clear
7:35 PM 41.0 °F 34.3 °F 21.2 °F 45% 30.10 in 10.0 mi NW 11.5 mph 21.9 mph N/A   Clear
7:55 PM 41.0 °F 35.2 °F 23.0 °F 49% 30.10 in 10.0 mi WNW 9.2 mph 20.7 mph N/A   Clear
8:15 PM 41.0 °F 33.9 °F 26.6 °F 57% 30.10 in 10.0 mi NW 12.7 mph 29.9 mph N/A   Clear
8:35 PM 41.0 °F 34.7 °F 26.6 °F 57% 30.11 in 10.0 mi WNW 10.4 mph 18.4 mph N/A   Clear
8:55 PM 41.0 °F 32.2 °F 28.4 °F 61% 30.11 in 10.0 mi WNW 18.4 mph 23.0 mph N/A   Clear
9:15 PM 41.0 °F 33.9 °F 26.6 °F 57% 30.11 in 10.0 mi WNW 12.7 mph 18.4 mph N/A   Clear
9:35 PM 41.0 °F 34.7 °F 24.8 °F 53% 30.12 in 10.0 mi NW 10.4 mph 21.9 mph N/A   Clear
10:15 PM 41.0 °F 35.8 °F 23.0 °F 49% 30.13 in 10.0 mi WNW 8.1 mph - N/A   Clear
10:35 PM 39.2 °F 33.0 °F 21.2 °F 49% 30.12 in 10.0 mi West 9.2 mph - N/A   Clear
11:15 PM 39.2 °F 32.5 °F 23.0 °F 52% 30.12 in 10.0 mi West 10.4 mph - N/A   Clear
11:35 PM 37.4 °F 29.3 °F 21.2 °F 52% 30.13 in 10.0 mi WNW 12.7 mph 17.3 mph N/A   Clear